User: anonymous   Login
Location: Caltech
(34.1382°N, 118.1253°W)
Time: 01:14:30
(UTC-08:00)
Language:

Cosmos 1833 Rocket - Orbit

View from above orbital plane
View from above orbital plane
View from above satellite
View from above satellite

Ground track
Ground track

The orbit data is extracted from the following two-line orbital elements,

1 17590U 87027B   14354.22025894 -.00000046  00000-0  10703-5 0  8520
2 17590 071.0042 266.0403 0007365 259.6207 100.4086 14.16672577435244
Epoch (UTC): 20 December 2014 05:17:10
Eccentricity: 0.0007365
inclination: 71.0042°
perigee height: 831 km
apogee height: 842 km
right ascension of ascending node: 266.0403°
argument of perigee: 259.6207°
revolutions per day: 14.16672577
mean anomaly at epoch: 100.4086°
orbit number at epoch: 43524

The dashed part of the orbit path shows where the satellite is in the earth's shadow,  

DLR